Weather History for Knoxville, TN

Change the Weather History Date:

Sunday, February 26, 2012

  Actual Average Record
Temperature  
Mean Temperature 43 °F 45 °F  
Max Temperature 59 °F 56 °F 83 °F (1977)
Min Temperature 26 °F 35 °F 10 °F (1967)
Degree Days  
Heating Degree Days 22 20  
Month to date heating degree days 515 596  
Since 1 July heating degree days 2442 2858  
Cooling Degree Days 0 0  
Month to date cooling degree days 0 0  
Year to date cooling degree days 0 0  
Moisture  
Dew Point 22 °F    
Average Humidity 48    
Maximum Humidity 75    
Minimum Humidity 21    
Precipitation  
Precipitation 0.00 in 0.15 in 1.61 in (1890)
Month to date precipitation 3.27 3.96  
Year to date precipitation 8.94 8.28  
Snow  
Snow 0.00 in 0.00 in - ()
Month to date snowfall T 1.5  
Since 1 July snowfall 0.1 5.0  
Snow Depth 0.00 in    
Sea Level Pressure  
Sea Level Pressure 30.35 in    
Wind  
Wind Speed 4 mph (NNW)    
Max Wind Speed 12 mph    
Max Gust Speed 16 mph    
Visibility 10 miles    
Events      
T = Trace of Precipitation, MM = Missing Value Source: NWS Daily Summary

Daily Weather History Graph

Daily Weather History Graph

Search for Another Location

Airport:

Trip Planner

Search our weather history database for the weather conditions in past years. The results will help you decide how hot, cold, wet, or windy it might be!

Date:

Astronomy

Feb. 26, 2012 Rise Set
Actual Time 7:10 AM EST 6:27 PM EST
Civil Twilight 6:44 AM EST 6:53 PM EST
Nautical Twilight 6:15 AM EST 7:23 PM EST
Astronomical Twilight 5:45 AM EST 7:52 PM EST
Moon 9:16 AM EST (2/26) 11:12 PM EST (2/26)
Length of Visible Light 12h 08m
Length of Day
11h 17m
Waxing Crescent, 20% of the Moon is Illuminated
Feb 26
Waxing Crescent
Feb 29
First Quarter
Mar 8
Full
Mar 14
Last Quarter
Mar 22
New

Hourly Weather History & Observations

Time (EST) Temp. Windchill Dew Point Humidity Pressure Visibility Wind Dir Wind Speed Gust Speed Precip Events Conditions
12:53 AM 34.0 °F 29.8 °F 18.0 °F 52% 30.36 in 10.0 mi NE 4.6 mph - N/A   Clear
1:53 AM 33.1 °F 28.7 °F 19.9 °F 59% 30.38 in 10.0 mi NE 4.6 mph - N/A   Clear
2:53 AM 28.9 °F 25.2 °F 21.9 °F 75% 30.37 in 10.0 mi NE 3.5 mph - N/A   Clear
3:53 AM 32.0 °F - 19.0 °F 59% 30.38 in 10.0 mi Calm Calm - N/A   Clear
4:53 AM 30.9 °F 25.2 °F 21.0 °F 67% 30.38 in 10.0 mi North 5.8 mph - N/A   Clear
5:53 AM 27.0 °F 21.6 °F 19.9 °F 75% 30.39 in 10.0 mi NE 4.6 mph - N/A   Clear
6:53 AM 28.0 °F 22.8 °F 21.0 °F 75% 30.39 in 10.0 mi North 4.6 mph - N/A   Partly Cloudy
7:53 AM 30.0 °F 22.4 °F 21.9 °F 72% 30.40 in 10.0 mi North 8.1 mph - N/A   Clear
8:53 AM 33.1 °F 26.1 °F 24.1 °F 70% 30.42 in 10.0 mi NE 8.1 mph - N/A   Clear
9:53 AM 37.9 °F - 25.0 °F 60% 30.43 in 10.0 mi Calm Calm - N/A   Clear
10:53 AM 42.1 °F - 25.0 °F 51% 30.41 in 10.0 mi Calm Calm - N/A   Clear
11:53 AM 46.0 °F 44.8 °F 21.9 °F 39% 30.40 in 10.0 mi Variable 3.5 mph - N/A   Clear
12:53 PM 51.1 °F - 23.0 °F 33% 30.36 in 10.0 mi Variable 6.9 mph - N/A   Clear
1:53 PM 54.0 °F - 21.0 °F 28% 30.34 in 10.0 mi West 4.6 mph - N/A   Clear
2:53 PM 57.0 °F - 19.0 °F 23% 30.31 in 10.0 mi WNW 8.1 mph - N/A   Clear
3:53 PM 57.9 °F - 18.0 °F 21% 30.29 in 10.0 mi Variable 4.6 mph - N/A   Clear
4:53 PM 57.9 °F - 19.0 °F 22% 30.29 in 10.0 mi NW 4.6 mph - N/A   Clear
5:53 PM 57.0 °F - 21.0 °F 25% 30.29 in 10.0 mi Calm Calm - N/A   Clear
6:53 PM 53.1 °F - 19.9 °F 27% 30.29 in 10.0 mi Calm Calm - N/A   Clear
7:53 PM 50.0 °F - 21.9 °F 33% 30.30 in 10.0 mi SW 3.5 mph - N/A   Clear
8:53 PM 46.9 °F - 24.1 °F 41% 30.29 in 10.0 mi Calm Calm - N/A   Clear
9:53 PM 45.0 °F 41.8 °F 25.0 °F 46% 30.30 in 10.0 mi WSW 5.8 mph - N/A   Clear
10:53 PM 44.1 °F 39.5 °F 24.1 °F 45% 30.32 in 10.0 mi SW 8.1 mph - N/A   Clear
11:53 PM 45.0 °F 41.2 °F 23.0 °F 42% 30.32 in 10.0 mi WSW 6.9 mph - N/A   Clear